EN

Hourly Weather Novovladimirskoe

Today, 16 May, Sunday

Time Temperature Precipitation Wind Pressure Humidity
00:00 +17°C° 0 mm 5 mps 760 mmHg 48%
01:00 +17°C° 0 mm 5 mps 760 mmHg 50%
02:00 +17°C° 0 mm 5 mps 760 mmHg 53%
03:00 +16°C° 0 mm 5 mps 760 mmHg 56%
04:00 +17°C° 0 mm 6 mps 760 mmHg 54%
05:00 +19°C° 0 mm 6 mps 760 mmHg 52%
06:00 +20°C° 0 mm 7 mps 759 mmHg 50%
07:00 +22°C° 0 mm 8 mps 759 mmHg 42%
08:00 +26°C° 0 mm 9 mps 759 mmHg 35%
09:00 +28°C° 0 mm 10 mps 759 mmHg 28%
10:00 +29°C° 0 mm 10 mps 759 mmHg 26%
11:00 +31°C° 0 mm 10 mps 759 mmHg 25%
12:00 +32°C° 0 mm 10 mps 758 mmHg 23%
13:00 +31°C° 0 mm 10 mps 758 mmHg 25%
14:00 +31°C° 0 mm 10 mps 758 mmHg 26%
15:00 +29°C° 0 mm 10 mps 757 mmHg 28%
16:00 +28°C° 0 mm 10 mps 757 mmHg 32%
17:00 +26°C° 0 mm 10 mps 757 mmHg 36%
18:00 +23°C° 0 mm 10 mps 757 mmHg 39%
19:00 +23°C° 0 mm 10 mps 757 mmHg 39%
20:00 +22°C° 0 mm 10 mps 757 mmHg 39%
21:00 +22°C° 0 mm 10 mps 757 mmHg 38%
22:00 +22°C° 0 mm 9 mps 756 mmHg 39%
23:00 +22°C° 0 mm 9 mps 756 mmHg 39%

Tomorrow, 17 May, Monday

Time Temperature Precipitation Wind Pressure Humidity
00:00 +22°C° 0 mm 9 mps 756 mmHg 40%
01:00 +21°C° 0 mm 9 mps 756 mmHg 41%
02:00 +21°C° 0 mm 9 mps 756 mmHg 42%
03:00 +21°C° 0 mm 9 mps 756 mmHg 43%
04:00 +21°C° 0 mm 9 mps 756 mmHg 43%
05:00 +21°C° 0 mm 9 mps 756 mmHg 44%
06:00 +21°C° 0 mm 9 mps 756 mmHg 45%
07:00 +23°C° 0 mm 9 mps 756 mmHg 41%
08:00 +26°C° 0 mm 10 mps 756 mmHg 37%
09:00 +27°C° 0 mm 11 mps 756 mmHg 33%
10:00 +28°C° 0 mm 11 mps 756 mmHg 32%
11:00 +29°C° 0 mm 11 mps 756 mmHg 31%
12:00 +29°C° 0 mm 12 mps 756 mmHg 30%
13:00 +29°C° 0 mm 12 mps 756 mmHg 31%
14:00 +28°C° 0 mm 12 mps 755 mmHg 32%
15:00 +28°C° 0 mm 11 mps 755 mmHg 34%
16:00 +27°C° 0 mm 11 mps 755 mmHg 37%
17:00 +24°C° 0 mm 10 mps 755 mmHg 40%
18:00 +23°C° 0 mm 10 mps 754 mmHg 44%
19:00 +22°C° 0 mm 8 mps 755 mmHg 45%
20:00 +21°C° 0 mm 7 mps 755 mmHg 46%
21:00 +20°C° 0 mm 6 mps 756 mmHg 47%
22:00 +19°C° 0 mm 5 mps 756 mmHg 54%
23:00 +18°C° 0 mm 3 mps 756 mmHg 61%

Day after tomorrow, 18 May, Tuesday

Time Temperature Precipitation Wind Pressure Humidity
00:00 +17°C° 0 mm 2 mps 755 mmHg 68%
01:00 +16°C° 0 mm 3 mps 755 mmHg 72%
02:00 +16°C° 0 mm 3 mps 756 mmHg 76%
03:00 +16°C° 0 mm 3 mps 756 mmHg 80%
04:00 +17°C° 0 mm 4 mps 756 mmHg 78%
05:00 +19°C° 0 mm 5 mps 757 mmHg 76%
06:00 +20°C° 0 mm 6 mps 757 mmHg 74%
07:00 +22°C° 0 mm 7 mps 758 mmHg 69%
08:00 +23°C° 0 mm 7 mps 758 mmHg 63%
09:00 +26°C° 0 mm 8 mps 758 mmHg 58%
10:00 +26°C° 0.1 mm 8 mps 758 mmHg 56%
11:00 +27°C° 0.1 mm 8 mps 759 mmHg 54%
12:00 +28°C° 0.1 mm 8 mps 759 mmHg 52%
13:00 +28°C° 0 mm 8 mps 759 mmHg 52%
14:00 +28°C° 0 mm 7 mps 759 mmHg 51%
15:00 +28°C° 0 mm 7 mps 759 mmHg 51%
16:00 +27°C° 0 mm 6 mps 759 mmHg 54%
17:00 +26°C° 0 mm 6 mps 759 mmHg 56%
18:00 +25°C° 0 mm 5 mps 759 mmHg 59%
19:00 +23°C° 0 mm 5 mps 760 mmHg 61%
20:00 +22°C° 0 mm 5 mps 760 mmHg 63%
21:00 +21°C° 0 mm 4 mps 760 mmHg 65%
22:00 +20°C° 0 mm 4 mps 761 mmHg 67%
23:00 +20°C° 0 mm 4 mps 761 mmHg 69%

19 May, Wednesday

Time Temperature Precipitation Wind Pressure Humidity
00:00 +19°C° 0 mm 3 mps 761 mmHg 72%
01:00 +19°C° 0 mm 3 mps 761 mmHg 73%
02:00 +19°C° 0 mm 3 mps 761 mmHg 74%
03:00 +18°C° 0 mm 3 mps 761 mmHg 75%
04:00 +19°C° 0 mm 4 mps 761 mmHg 73%
05:00 +19°C° 0 mm 4 mps 762 mmHg 72%
06:00 +20°C° 0 mm 4 mps 762 mmHg 70%
07:00 +22°C° 0 mm 4 mps 762 mmHg 63%
08:00 +25°C° 0 mm 5 mps 762 mmHg 55%
09:00 +27°C° 0 mm 5 mps 762 mmHg 47%
10:00 +28°C° 0 mm 5 mps 762 mmHg 43%
11:00 +29°C° 0 mm 4 mps 761 mmHg 39%
12:00 +32°C° 0 mm 4 mps 761 mmHg 34%
13:00 +32°C° 0 mm 4 mps 761 mmHg 33%
14:00 +31°C° 0 mm 3 mps 761 mmHg 32%
15:00 +33°C° 0 mm 3 mps 760 mmHg 30%
16:00 +31°C° 0 mm 3 mps 760 mmHg 34%
17:00 +30°C° 0 mm 3 mps 760 mmHg 37%
18:00 +29°C° 0 mm 2 mps 761 mmHg 40%
19:00 +27°C° 0 mm 3 mps 761 mmHg 46%
20:00 +24°C° 0 mm 3 mps 761 mmHg 52%
21:00 +21°C° 0 mm 3 mps 761 mmHg 58%
22:00 +20°C° 0 mm 3 mps 761 mmHg 59%
23:00 +20°C° 0 mm 2 mps 760 mmHg 59%

20 May, Thursday

Time Temperature Precipitation Wind Pressure Humidity
00:00 +20°C° 0 mm 2 mps 760 mmHg 60%
01:00 +19°C° 0 mm 2 mps 760 mmHg 62%
02:00 +19°C° 0 mm 2 mps 760 mmHg 64%
03:00 +19°C° 0 mm 2 mps 760 mmHg 66%
04:00 +19°C° 0 mm 2 mps 761 mmHg 66%
05:00 +20°C° 0 mm 3 mps 761 mmHg 65%
06:00 +21°C° 0 mm 3 mps 761 mmHg 64%
07:00 +23°C° 0 mm 4 mps 761 mmHg 56%
08:00 +27°C° 0 mm 5 mps 760 mmHg 48%
09:00 +29°C° 0 mm 6 mps 760 mmHg 40%
10:00 +30°C° 0 mm 6 mps 760 mmHg 39%
11:00 +32°C° 0 mm 7 mps 760 mmHg 37%
12:00 +33°C° 0 mm 8 mps 760 mmHg 35%
13:00 +32°C° 0 mm 8 mps 759 mmHg 35%
14:00 +32°C° 0 mm 8 mps 759 mmHg 34%
15:00 +32°C° 0 mm 8 mps 759 mmHg 34%
16:00 +29°C° 0 mm 8 mps 759 mmHg 39%
17:00 +27°C° 0 mm 7 mps 759 mmHg 44%
18:00 +24°C° 0 mm 7 mps 759 mmHg 50%
19:00 +23°C° 0 mm 7 mps 759 mmHg 54%
20:00 +21°C° 0 mm 6 mps 759 mmHg 59%
21:00 +20°C° 0 mm 6 mps 759 mmHg 63%
22:00 +20°C° 0 mm 6 mps 759 mmHg 64%
23:00 +20°C° 0 mm 6 mps 758 mmHg 65%

21 May, Friday

Time Temperature Precipitation Wind Pressure Humidity
00:00 +20°C° 0 mm 6 mps 758 mmHg 66%
01:00 +20°C° 0 mm 7 mps 758 mmHg 65%
02:00 +20°C° 0 mm 7 mps 758 mmHg 63%
03:00 +20°C° 0 mm 7 mps 757 mmHg 62%
04:00 +21°C° 0 mm 8 mps 757 mmHg 59%
05:00 +21°C° 0 mm 8 mps 757 mmHg 56%
06:00 +22°C° 0 mm 9 mps 758 mmHg 54%
07:00 +24°C° 0 mm 10 mps 757 mmHg 47%
08:00 +27°C° 0 mm 11 mps 757 mmHg 41%
09:00 +29°C° 0 mm 12 mps 757 mmHg 35%
10:00 +31°C° 0 mm 13 mps 757 mmHg 34%
11:00 +31°C° 0 mm 13 mps 757 mmHg 32%
12:00 +32°C° 0 mm 13 mps 757 mmHg 31%
13:00 +31°C° 0 mm 13 mps 756 mmHg 32%
14:00 +31°C° 0 mm 14 mps 756 mmHg 33%
15:00 +29°C° 0 mm 14 mps 756 mmHg 35%
16:00 +28°C° 0 mm 13 mps 756 mmHg 37%
17:00 +27°C° 0 mm 12 mps 756 mmHg 40%
18:00 +26°C° 0 mm 11 mps 756 mmHg 42%
19:00 +24°C° 0 mm 11 mps 756 mmHg 43%
20:00 +24°C° 0 mm 10 mps 757 mmHg 43%
21:00 +23°C° 0 mm 10 mps 757 mmHg 44%
22:00 +22°C° 0 mm 9 mps 757 mmHg 46%
23:00 +22°C° 0 mm 8 mps 757 mmHg 48%
Show more

We Need Your Consent

Meteoprog and our Service Providers may store and access personal data such as cookies, device identifiers or other similar technologies on your device and process such data to personalise content and ads, as well as provide social media features and to analyse the traffic.

  • Store and/or access information on your device

    Cookies, device identifiers or other information can be stored or accessed on your device for the purposes indicated above.

  • Personalised ads and content, ad and content measurement, audience insights, and products development

    Ads and content can be personalised based on a profile. More data can be added to better personalise ads and content. Ad and content performance can be measured. Insights about the audience who saw the ads and content can be derived. Such data can be used to develop or improve user’s experience, systems and software.

By clicking ‘I Agree’ you will allow the use of indicated cookies, device identifiers, web beacons or other similar technologies. Your settings can be changed in the browser on your device.

For certain purposes, legitimate interests may be relied on, rather than consent. You can read more about this in our Privacy and Cookie Policy.